OPS 4682 DEB, 38412

Orbit data source: Space-Track

OPS 4682 DEB, 38412 is space debris in LEO originally from a launch on Sat, 03 Apr 1965 UTC launched from the Air Force Western Test Range (AFWTR). Debris objects in space refer to the collection of defunct objects orbiting the Earth. Examples of debris include non-operational satellites, rocket bodies, and fragments generated from explosions, collisions, or faulty payload assembly.

Loading next visibility...
Identifier
38412, 1965-027DR
Orbit
LEO
Country
Flag of USUS
Related business
Manufacturer
Unknown
Mission
Spacecraft
Bus & Motor
Unknown
Mass
Unknown
Launch date (UTC)
1965-04-03 (61 years ago)
Launch vehicle
Unknown
Launch site
Air Force Western Test Range (AFWTR)
Object type
Payload
Rocket body
Debris
Shape & HBR
Unknown shape, 0.1 m
Radar Cross Section
Medium (>0.1 m² and <1 m²)

Expand to show TLE details & history
Last TLE update: 5 days ago

TLE from 5 days ago
0 OPS 4682 DEB
1 38412U 65027DR  26146.35184383  .00000310  00000-0  10816-2 0  9994
2 38412  90.2364   2.7018 0030620 316.5718  43.2989 12.94834166627839
Epoch: 2026-05-26T08:26Z
TLE epoch observation values (Epoch: 2026-05-26T08:26:39.306Z)
Latitude
-0.00008°
Longitude
-7.8885°
Altitude
1,268.229 km
Speed
7.229 km/s
True Right ascension
00h 10m 48s
True Declination
0° 00' 00"
Sunlit
Object was in daylight at epoch
Visualization orbit readout
Latitude
Unknown
Longitude
Unknown
Altitude
Unknown
Speed
Unknown
Apparent Right ascension
Unknown
Apparent Declination
Unknown
Sunlit
N/A
Visualization observer readout
Local Sidereal Time
13:40:11
Azimuth
Unknown
Elevation
Unknown
Doppler factor
Unknown
Orbital elements
Apogee altitude
1,302.976 km
Perigee altitude
1,256.081 km
Semi-major axis
7,657.666 km
Eccentricity
0.00306
Inclination
90.2364°
RAAN
2.7018°
Arg. of periapsis
316.5718°
True anomaly
43.54021°
Mean anomaly
43.2989°
Eccentric anomaly
43.41949°
Mean motion
3.23891 °/min
Orbital period
111.15 mins
BSTAR
0.0010816
Loading maneuver chart data...
Computing Atmospheric mass density...
Loading historical data...
Loading historical data...
Loading historical data...
Loading historical data...
Loading historical data...
Loading historical data...
Loading historical data...

Documentation

Showing up to 5 results
|